Wind_Speed
12 13 13 13 13 13 13 13 13 12 12 12 11 11 11 10 9 8 7 7 7 7 8 9 9 8 7 6 7 10 14 16 16 16 15 11 7 8 9 10 11 10 12 13 14 15 15 16 17 16 16 16 15 15 12 11 11 10 9 7 5 4 5 6 7 8 7 6 8 10 10 6 4 2 2 3 4 4 3 2 3 4 3 3 4 4 4 4
13 13 13 14 14 14 14 14 13 13 12 12 12 11 11 11 10 9 8 7 7 7 7 8 9 9 8 6 6 7 11 15 16 17 17 11 9 11 10 11 11 12 13 13 14 15 16 17 18 18 18 17 16 14 13 12 12 11 8 6 5 3 4 7 7 8 8 7 9 11 11 8 4 2 1 2 4 3 1 1 2 2 2 2 3 3 3 4
14 14 14 14 14 14 14 14 14 14 13 13 13 12 12 11 11 10 10 9 8 7 7 7 8 9 8 6 6 6 8 12 15 17 18 13 12 12 9 8 11 13 14 15 18 19 20 22 22 21 21 19 16 14 14 12 12 12 10 7 7 4 4 7 7 8 7 7 10 11 11 8 4 2 2 3 4 3 2 2 1 1 2 2 3 3 3 4
16 16 16 15 15 15 15 15 15 14 14 14 13 13 12 12 11 10 10 10 10 9 7 7 8 9 9 7 6 6 6 8 11 15 19 16 14 14 12 10 11 14 15 17 19 20 23 24 22 21 20 19 16 14 14 14 14 13 13 12 10 6 5 7 8 9 7 7 9 11 11 9 6 5 5 3 2 2 3 3 1 0 1 3 3 4 4 5
18 18 17 17 17 16 16 16 15 15 14 14 13 13 12 11 11 10 10 10 11 11 9 7 8 10 10 8 6 5 6 7 8 12 16 18 16 16 16 14 13 13 14 16 18 18 18 17 18 18 18 17 15 13 15 16 14 13 15 15 13 9 7 8 9 9 8 7 8 9 11 10 10 10 8 5 3 1 2 3 1 1 1 3 3 4 5 5
19 19 19 19 18 18 17 17 17 16 15 14 13 12 11 11 10 10 10 10 11 12 11 9 9 10 10 10 7 5 6 6 7 9 12 16 18 18 18 17 15 13 12 13 16 15 13 11 14 16 16 17 15 15 17 18 15 14 17 17 15 13 10 9 8 9 9 8 8 9 10 11 11 11 10 8 6 4 4 4 1 1 2 3 4 5 5 5
21 21 21 20 20 20 19 18 18 18 17 16 15 13 12 11 10 10 10 10 11 11 12 11 10 11 11 11 9 7 6 5 7 8 9 12 15 18 19 18 17 15 13 12 13 13 10 9 13 17 18 18 17 18 19 18 16 16 17 17 16 15 13 11 9 9 11 10 8 9 10 11 12 11 9 7 6 6 6 5 4 3 4 4 5 5 5 4
23 22 22 22 22 21 21 20 19 19 19 18 17 15 14 12 11 11 11 11 11 11 12 11 11 12 12 12 10 9 8 6 6 7 8 9 12 16 18 18 17 16 15 13 12 13 12 10 15 20 20 19 19 22 21 19 18 17 18 19 18 17 16 13 10 9 11 11 10 10 11 12 12 11 10 6 4 6 7 8 7 5 4 3 5 6 6 4
23 23 23 23 23 23 22 21 21 20 20 20 19 17 16 14 13 13 13 12 11 12 12 11 12 12 13 13 12 11 9 8 8 6 6 9 11 13 16 18 18 17 16 15 14 14 14 14 18 21 20 20 22 24 23 20 19 19 21 20 18 17 15 13 11 9 8 10 11 10 11 12 12 11 10 7 5 7 8 8 8 7 4 2 4 7 7 6
23 23 23 23 24 24 23 23 22 22 22 22 21 19 18 16 16 15 15 13 12 12 13 12 12 12 13 13 14 12 7 10 11 6 6 7 9 12 14 16 18 18 17 16 15 13 14 16 20 24 25 26 26 26 24 22 21 23 23 19 18 17 15 12 10 9 8 8 10 11 12 12 11 10 9 8 8 8 9 8 7 7 6 3 4 7 7 6
22 23 23 23 24 24 24 24 23 24 24 23 22 20 19 19 18 18 16 15 13 13 13 12 12 13 13 14 15 10 6 12 13 10 8 7 9 11 12 14 16 18 17 17 15 14 16 20 24 27 28 28 28 28 25 24 25 26 24 21 20 19 15 11 9 9 10 8 8 10 12 11 10 9 8 8 8 8 9 10 8 6 6 6 4 6 7 6
22 23 23 23 23 23 24 24 24 25 25 25 23 22 21 21 21 20 19 17 15 14 14 12 12 13 14 16 15 8 8 13 13 13 12 8 7 10 12 13 14 17 18 18 17 17 19 22 25 26 26 27 28 28 26 27 29 29 28 24 23 22 17 12 11 11 12 13 10 7 11 11 10 10 8 7 7 8 9 11 10 7 5 6 5 5 6 6
23 23 23 23 23 23 23 24 24 25 26 25 24 23 22 22 22 21 21 19 17 16 15 14 13 13 14 16 13 7 10 14 13 15 14 9 7 9 12 13 13 15 17 18 19 20 21 23 25 24 26 28 28 28 26 27 30 31 29 24 24 23 17 14 14 14 14 17 14 7 9 11 11 10 8 7 7 7 8 9 11 8 6 6 6 5 5 7
24 24 24 24 24 23 23 23 24 25 26 25 25 24 24 24 24 23 23 21 19 18 18 17 17 16 16 17 11 8 11 14 16 16 13 10 10 10 11 13 13 14 16 19 20 21 22 23 24 26 28 29 29 28 27 28 30 32 29 23 23 21 16 16 16 14 17 18 14 9 8 10 10 10 9 8 8 8 7 8 10 10 8 7 6 6 5 5
27 26 26 26 26 25 24 24 24 25 26 25 24 24 25 25 25 25 24 23 22 20 20 20 20 18 19 19 13 11 13 16 17 14 12 12 13 14 13 12 13 13 15 17 20 22 23 24 24 24 26 27 29 28 27 28 29 31 29 22 21 19 16 17 16 14 18 20 15 11 9 10 12 11 11 10 9 8 7 6 9 10 10 8 6 6 5 4
30 29 29 29 28 28 26 25 25 27 27 25 25 25 25 25 25 25 25 24 23 22 22 21 22 20 21 22 18 14 16 17 16 13 13 16 16 16 14 12 12 13 14 16 18 21 23 25 24 24 25 27 27 26 26 27 28 30 27 22 20 18 18 18 15 15 20 21 17 12 12 12 13 13 12 11 9 7 6 6 8 9 10 8 6 5 5 3
33 33 33 32 32 31 30 28 27 28 28 27 26 26 26 25 25 25 25 25 24 24 24 23 23 22 22 24 22 18 17 18 17 14 16 18 18 17 15 14 14 15 15 16 16 18 21 23 24 24 25 26 26 26 25 20 20 25 22 19 19 17 19 20 16 18 22 22 17 14 14 14 15 15 14 12 11 8 7 6 7 8 9 9 6 5 6 2
36 36 36 36 35 35 33 32 31 31 31 29 28 28 28 27 26 26 25 25 24 25 25 24 24 24 23 25 25 22 19 19 19 18 17 18 18 16 16 17 17 17 16 15 14 15 17 19 22 24 26 27 26 24 18 9 10 20 20 19 20 17 18 19 18 19 23 23 19 17 15 14 15 15 14 14 13 11 9 8 8 7 8 10 7 5 6 2
39 39 38 39 38 38 36 35 34 33 33 32 31 30 30 29 28 27 26 25 25 26 26 25 25 24 24 26 26 24 21 20 19 19 18 19 18 16 17 18 18 18 17 14 14 14 15 17 20 21 22 24 23 21 17 9 10 18 21 21 23 21 18 17 18 21 24 25 21 18 16 15 14 14 14 13 13 12 10 8 8 8 7 9 8 4 5 4
42 41 41 41 41 40 39 37 37 36 36 36 34 33 33 32 31 29 28 27 26 26 26 25 25 25 25 27 28 26 24 21 19 20 20 21 21 18 16 17 17 17 16 15 15 15 16 15 14 14 15 18 20 21 21 18 16 18 20 22 24 24 20 17 19 23 25 25 21 19 19 17 15 14 12 12 12 11 9 7 7 7 7 8 8 4 4 4
44 44 43 43 43 43 42 40 39 38 38 38 38 37 36 35 34 32 30 29 27 27 26 26 26 24 25 30 30 28 28 23 20 21 21 21 22 20 17 17 16 15 15 18 19 18 14 7 4 7 11 16 20 22 23 22 22 22 21 22 25 26 22 18 22 24 24 23 21 20 20 19 16 14 13 13 13 12 9 6 5 5 6 6 8 5 3 4
46 46 45 45 45 45 44 43 42 41 40 40 40 40 39 38 38 36 33 31 30 30 27 26 28 24 25 33 33 31 29 22 20 22 21 21 22 21 20 18 17 15 18 22 21 18 13 4 3 6 10 16 20 22 24 23 25 27 25 24 26 26 24 23 24 25 25 24 21 21 22 22 19 17 17 16 14 13 10 7 3 2 3 2 7 6 3 3
48 47 47 47 47 47 47 46 44 43 43 43 42 42 42 41 41 40 38 34 31 33 31 29 29 24 25 33 36 34 29 22 24 25 23 22 21 22 23 20 18 19 21 21 19 19 14 8 8 10 12 16 19 22 24 25 28 30 29 26 23 24 27 26 25 28 29 28 26 26 25 24 22 21 20 19 17 16 15 12 8 5 4 2 7 7 3 4
50 49 49 49 48 48 49 48 47 46 46 46 45 44 44 44 44 43 43 39 33 32 35 34 32 28 28 33 38 36 28 23 26 27 25 24 23 24 24 22 22 23 21 20 20 20 17 14 14 15 15 17 20 22 25 27 28 29 30 27 22 24 28 27 27 31 33 32 29 27 28 27 24 21 20 19 18 18 18 16 13 10 8 4 5 7 5 5
51 51 51 50 50 49 50 50 49 49 48 48 47 47 47 47 47 46 45 44 37 33 35 39 37 33 32 34 37 36 30 25 23 28 29 25 24 25 25 25 25 22 20 21 22 21 19 19 19 18 18 18 20 22 24 26 27 28 28 24 22 25 28 29 30 32 34 33 28 27 29 28 25 22 21 20 20 19 18 17 16 13 11 6 2 5 6 4
53 53 52 52 51 50 50 51 52 51 51 51 50 49 49 49 49 49 47 47 44 37 37 40 41 39 36 37 37 36 34 26 23 31 32 26 27 28 28 29 25 21 21 23 24 20 19 21 22 21 20 20 20 21 21 23 26 27 24 23 26 29 30 31 32 33 35 33 29 30 31 27 26 25 22 21 21 20 20 20 20 17 13 10 6 3 7 6
55 55 54 54 53 52 51 51 53 54 54 53 52 51 51 51 50 51 50 50 48 43 39 41 44 43 41 40 39 38 37 29 27 36 33 26 28 31 31 30 25 22 23 25 23 16 15 21 22 22 22 22 20 17 17 21 22 19 20 25 29 30 31 32 34 36 36 33 33 34 32 28 26 26 23 22 22 22 23 23 22 20 16 12 8 4 5 8
54 55 55 55 55 54 52 51 52 55 56 55 55 54 53 53 52 52 52 52 51 47 42 42 45 46 44 43 42 41 40 34 33 38 34 30 31 33 33 30 27 25 27 28 22 15 17 21 21 22 25 25 20 16 16 18 15 14 22 28 28 30 33 33 36 38 37 38 37 34 34 31 23 23 25 25 24 24 24 24 23 21 18 14 10 6 5 9
54 55 55 55 56 56 55 53 51 53 55 56 57 56 55 55 54 54 54 53 52 50 46 43 44 47 47 46 44 44 42 39 38 39 39 37 34 33 33 30 29 30 32 30 25 22 24 24 24 25 27 25 22 20 19 18 14 16 25 28 28 31 34 36 38 38 40 42 37 32 35 34 21 22 27 26 24 22 22 24 24 22 19 16 14 10 6 8
55 55 56 55 55 56 56 55 53 53 54 55 57 58 58 57 56 56 56 54 52 51 50 47 45 47 48 47 45 44 44 41 40 41 41 40 37 36 35 32 33 34 34 32 28 27 27 28 28 26 24 23 23 23 23 20 18 21 27 30 32 33 35 40 40 40 44 42 35 31 36 38 25 22 26 23 19 19 22 26 25 24 22 20 17 13 9 6
56 56 57 56 56 56 55 55 55 54 54 54 56 58 59 59 59 59 58 54 52 53 53 50 48 47 48 47 45 44 43 42 41 41 42 41 39 40 38 36 36 36 37 35 30 28 29 30 29 26 24 23 23 24 24 23 23 26 30 33 35 35 38 43 42 43 42 34 31 32 37 40 25 17 21 18 14 19 25 26 25 25 24 22 20 16 13 9
58 58 58 57 57 57 56 55 55 56 56 56 56 57 58 60 61 61 58 54 53 55 55 53 50 48 48 48 46 44 42 43 42 42 42 42 41 40 39 36 35 35 35 32 27 28 30 29 27 27 27 25 23 23 25 26 25 27 31 34 36 37 40 43 42 41 34 28 29 32 36 36 18 10 15 16 15 20 26 26 23 23 24 24 23 20 17 15
60 59 59 59 59 59 59 57 56 56 57 57 57 58 59 61 62 61 59 56 56 57 57 55 52 50 48 47 47 45 43 42 43 44 43 42 42 41 39 37 36 37 34 29 27 30 31 30 30 31 28 25 24 23 23 24 24 25 28 31 33 34 37 37 36 34 30 29 31 31 36 33 17 9 12 14 16 20 24 24 21 20 21 22 23 21 20 19
62 61 61 60 60 61 61 60 59 58 58 59 59 59 61 62 62 61 60 59 59 59 58 57 55 52 50 48 48 47 44 43 43 45 45 45 44 42 42 41 40 40 37 34 34 34 34 33 32 29 26 24 24 22 22 23 25 25 25 30 32 32 33 33 33 32 29 31 34 33 35 28 17 11 11 13 17 18 21 22 20 20 20 19 20 21 20 21
66 65 64 62 62 62 62 63 63 62 61 60 61 62 62 61 61 62 61 60 60 60 59 58 57 55 53 51 50 48 47 45 44 45 46 47 46 43 42 41 40 40 39 38 37 35 36 34 29 28 29 28 26 24 25 28 29 27 28 31 29 26 30 33 35 35 33 36 38 35 32 23 18 17 14 16 19 18 19 20 20 21 20 20 21 21 20 20
70 70 68 66 64 64 64 65 65 65 64 63 64 64 62 61 62 63 63 61 60 60 60 59 58 57 55 54 52 51 50 49 47 46 46 48 48 45 43 42 42 42 42 41 38 37 38 33 27 31 33 30 28 27 30 32 30 31 33 30 23 22 29 34 35 36 39 41 39 35 30 24 23 23 18 17 18 20 20 18 20 20 19 21 22 20 20 18
73 73 72 70 68 68 67 67 67 67 67 66 66 65 64 63 64 64 65 64 63 62 61 60 59 59 59 57 56 54 52 52 51 50 49 50 51 50 48 48 47 47 47 46 44 43 43 36 32 35 33 29 29 31 34 34 33 35 32 26 25 29 33 34 34 36 40 42 37 32 27 24 22 19 16 16 15 18 21 19 19 20 19 20 20 21 22 20
77 77 76 73 72 71 70 69 69 69 69 68 67 66 66 67 66 65 66 67 66 65 64 62 61 61 61 60 59 57 55 54 54 53 52 53 54 53 52 51 51 51 52 51 49 47 46 43 40 39 35 32 35 38 40 39 37 35 30 28 33 37 34 35 36 35 37 38 33 27 25 23 18 12 11 14 14 15 19 20 20 20 20 19 17 18 21 23
80 79 79 77 76 75 73 72 70 70 70 69 68 67 68 68 67 67 68 69 69 68 67 65 64 64 63 62 62 60 58 57 56 56 56 56 57 56 55 54 53 53 53 52 51 49 48 47 44 41 38 38 41 45 45 42 38 35 34 35 38 37 34 35 37 34 34 34 31 28 23 14 10 11 12 13 13 15 18 20 21 21 20 19 17 17 19 22
77 76 77 79 77 75 76 75 73 72 71 70 69 69 69 69 69 69 71 72 72 72 71 69 68 66 66 65 64 63 61 60 59 59 59 60 60 59 58 57 55 55 54 53 52 51 49 49 47 43 42 44 47 49 46 42 39 38 38 38 37 37 36 36 38 36 34 33 31 29 17 4 4 8 12 11 12 13 16 19 20 21 21 21 20 19 19 19
67 68 71 75 74 71 73 74 73 72 72 72 71 70 69 69 70 70 72 74 74 74 74 73 71 70 68 68 67 66 65 63 62 62 63 62 62 62 60 59 58 57 56 54 54 52 51 52 52 47 47 49 50 48 43 40 39 40 40 39 37 37 38 39 40 36 33 32 30 30 22 8 4 9 11 13 13 11 13 15 18 20 22 22 21 21 21 20
57 58 62 65 65 64 65 66 68 69 69 71 72 71 69 69 69 69 71 73 75 76 77 77 75 74 72 71 70 68 67 67 65 65 65 65 65 64 63 62 60 59 58 57 55 54 54 55 55 51 50 51 50 47 45 42 41 42 43 42 40 41 42 43 40 34 33 34 31 33 31 18 11 11 12 14 14 13 13 14 16 19 20 22 23 23 23 23
48 49 51 54 53 54 54 55 59 62 62 65 68 68 67 68 68 69 69 70 73 76 78 78 78 77 76 74 73 71 70 69 69 68 67 67 67 67 66 65 62 61 60 59 58 57 56 57 56 53 51 51 50 49 49 48 46 48 48 45 44 46 45 43 39 34 36 38 35 36 35 22 14 13 13 14 15 15 14 13 15 17 19 23 25 24 25 26
41 40 42 44 43 44 45 45 47 51 53 56 58 61 63 65 67 67 68 69 72 75 77 79 80 80 80 78 75 74 73 72 71 71 70 69 69 69 69 67 66 64 63 62 61 60 59 59 59 56 55 54 53 52 53 53 53 54 53 49 48 46 44 44 41 40 43 42 38 39 37 25 16 14 15 16 17 17 16 16 16 16 18 21 23 24 26 27
36 34 35 36 37 38 39 38 37 39 43 45 48 51 55 58 62 64 65 67 70 73 75 78 81 81 81 80 79 77 76 75 74 73 73 72 71 71 71 70 69 67 65 65 64 63 62 62 61 60 58 57 57 56 56 56 57 57 56 53 50 47 46 46 44 45 48 44 41 42 37 27 20 17 16 17 19 19 19 18 18 17 16 17 20 23 26 28
34 31 29 30 32 33 33 33 31 30 33 35 38 43 47 50 55 58 61 64 67 70 74 77 80 82 82 82 82 81 79 78 77 76 75 75 74 73 73 72 72 70 69 68 66 66 65 64 64 63 60 59 59 58 57 57 58 59 58 56 54 51 49 48 48 51 50 45 44 42 36 31 26 20 17 17 20 21 20 20 20 18 15 15 17 20 24 27
33 31 27 26 27 28 29 29 27 24 24 26 30 36 41 46 49 51 53 58 62 65 70 75 77 80 82 83 82 82 81 80 80 80 79 78 77 76 75 75 74 73 72 70 69 68 67 66 66 66 63 61 60 59 59 59 60 60 60 58 56 54 52 52 54 54 50 48 47 40 34 35 32 25 20 19 19 19 19 21 21 19 17 16 16 18 21 25
30 29 27 25 25 24 24 25 24 23 21 19 21 27 34 42 47 47 43 45 52 58 63 69 75 77 80 83 83 83 83 82 82 82 82 81 80 78 78 77 77 76 75 74 72 71 70 69 69 68 66 64 62 61 61 61 61 61 60 59 57 56 55 55 55 53 51 52 48 37 35 38 35 31 26 20 19 20 20 22 24 22 20 18 18 18 20 23
28 26 25 24 24 23 22 20 20 21 20 17 17 19 24 32 39 45 43 36 39 48 54 59 66 71 75 79 81 81 82 82 83 83 84 84 83 82 81 80 80 79 78 77 75 74 73 72 71 71 69 67 65 64 63 62 62 62 60 60 58 57 57 56 55 53 52 53 48 40 41 43 37 34 29 22 22 24 24 25 26 24 23 22 22 21 21 23
26 24 22 22 22 22 21 19 18 18 18 17 16 15 16 20 26 35 42 41 37 39 45 50 55 60 66 73 75 77 80 82 82 83 84 85 85 84 84 83 82 82 80 79 78 77 76 75 74 73 72 70 68 67 66 64 64 63 61 60 59 58 58 57 56 55 55 54 50 45 47 46 39 34 30 24 23 26 27 28 27 27 27 26 24 24 24 24
25 23 21 20 20 20 20 19 18 17 17 16 15 13 13 16 18 22 32 41 43 41 42 45 47 49 53 62 68 73 78 80 81 82 84 86 87 87 86 85 84 84 83 82 81 80 79 78 76 75 75 72 70 70 69 67 66 64 61 59 59 59 59 58 58 58 57 56 52 49 51 47 37 32 30 27 26 26 27 28 29 30 31 30 28 27 26 26
23 22 20 19 20 20 19 19 18 17 16 15 15 13 12 13 15 17 22 30 40 47 47 45 46 45 45 50 58 66 73 76 78 80 82 85 87 89 89 87 86 85 84 84 83 83 82 80 79 78 78 75 73 73 71 69 68 65 61 60 60 60 59 59 59 59 58 57 55 54 51 43 34 31 32 30 28 29 29 30 31 32 33 34 32 29 28 28
Wind_Direction
283 283 284 286 286 287 289 289 290 290 289 289 289 290 292 294 297 302 306 309 308 303 297 294 291 285 280 275 267 256 250 249 251 251 246 238 235 235 222 210 204 198 201 196 195 198 196 205 212 213 212 210 213 213 211 206 202 207 204 190 174 166 176 173 142 121 119 114 99 81 70 43 354 28 121 134 127 131 141 151 128 125 142 144 138 135 148 169
283 282 282 283 283 284 284 285 286 286 287 287 287 287 288 289 290 290 292 295 299 302 302 298 292 287 283 277 269 261 252 248 247 250 251 241 230 234 227 217 209 202 202 191 194 197 196 204 207 210 213 214 215 211 210 202 196 201 198 194 189 184 196 189 163 137 131 119 99 84 75 53 5 323 112 93 83 103 143 168 121 137 172 177 164 152 159 175
284 282 281 281 281 281 281 281 281 281 282 282 283 284 284 285 285 284 283 284 286 289 295 297 293 288 287 282 271 260 253 249 246 247 251 244 229 234 233 223 218 212 205 195 197 197 199 205 202 202 207 212 213 208 209 200 194 196 185 189 202 203 199 185 167 150 135 116 105 92 81 62 27 356 11 41 53 58 61 49 57 163 200 214 207 187 177 190
283 282 281 281 280 279 279 279 279 278 278 278 279 280 281 281 280 279 277 277 277 278 279 285 289 289 290 288 278 264 252 249 247 245 249 247 235 234 233 227 225 221 215 207 205 205 209 210 202 199 202 206 208 208 208 202 200 195 183 191 201 202 200 182 161 150 139 124 118 104 93 78 55 38 15 4 28 32 54 67 38 306 236 248 237 211 191 199
281 280 280 280 280 279 278 278 278 277 276 276 276 276 278 279 278 277 274 271 270 272 271 272 278 285 289 290 289 279 261 252 248 244 246 247 241 237 236 233 232 230 227 219 217 220 225 222 207 201 201 202 204 206 208 208 208 198 186 189 193 198 210 192 161 151 149 135 125 112 104 95 76 58 43 40 63 97 88 91 80 4 265 266 251 225 206 205
280 278 278 278 278 278 277 277 276 277 275 273 272 272 274 276 279 278 275 271 266 268 268 266 268 274 283 287 292 291 276 262 248 243 243 245 243 240 237 236 237 238 238 230 224 227 236 228 204 198 200 198 197 201 207 210 208 198 189 187 189 196 209 200 174 162 158 140 122 108 105 105 93 73 55 52 69 91 88 82 58 343 292 280 265 244 230 215
280 278 277 276 276 276 276 275 275 275 274 272 270 270 271 273 276 275 274 271 266 266 266 264 262 265 272 278 285 287 280 270 252 245 242 245 245 242 240 237 237 239 241 237 228 225 229 216 191 193 199 195 193 203 210 209 204 200 194 191 190 196 205 201 187 172 158 146 130 112 111 112 103 88 71 56 56 69 65 50 21 343 314 296 274 250 239 226
280 278 277 276 275 274 274 273 273 272 271 270 269 269 271 273 274 271 269 267 265 264 265 263 259 260 264 269 276 276 275 275 265 251 241 241 242 242 241 237 236 236 236 234 226 217 211 198 189 193 197 193 194 205 211 207 205 202 199 199 195 197 204 204 199 185 165 155 141 122 122 118 109 105 98 88 60 55 50 32 13 351 324 295 261 243 235 228
280 279 277 276 275 274 273 272 271 270 268 267 266 268 271 274 272 268 264 263 262 261 262 261 258 257 259 263 266 266 273 279 272 257 244 242 241 242 239 236 234 233 233 230 225 217 203 193 195 197 195 193 197 206 211 209 205 203 206 209 203 201 209 213 213 207 194 175 156 136 133 129 120 116 115 111 88 68 55 33 12 354 336 279 228 229 233 230
281 280 278 276 274 273 272 271 269 268 266 265 264 264 267 270 268 264 261 260 259 259 258 257 257 257 257 260 260 260 272 274 269 262 248 241 240 242 239 234 231 230 230 229 229 220 206 197 198 199 195 195 199 206 211 209 207 210 215 215 208 207 213 219 225 237 247 214 179 154 143 142 133 123 121 119 101 81 62 40 19 359 343 314 233 223 229 229
283 282 280 278 276 274 273 271 269 267 266 264 263 262 263 264 263 261 260 258 256 255 255 255 256 256 257 258 256 261 272 264 264 264 249 234 236 241 242 238 232 230 227 226 226 217 208 203 205 205 199 198 201 206 209 207 209 215 219 215 210 210 210 220 240 262 277 261 213 174 155 149 135 122 121 117 103 83 58 37 19 2 345 329 278 237 230 223
285 284 283 281 278 276 274 272 270 267 265 264 263 262 260 259 258 258 258 256 252 251 252 252 252 253 256 257 257 260 262 259 261 260 252 238 235 239 243 241 234 232 229 225 221 216 211 208 212 211 205 205 206 208 208 205 209 219 222 216 213 216 213 220 245 264 281 282 266 206 164 148 130 121 118 114 103 82 56 35 15 3 355 339 309 262 233 213
285 284 283 281 280 277 276 274 271 269 266 264 263 262 260 257 256 256 256 254 251 249 249 248 247 247 251 257 259 249 250 257 257 252 250 247 238 235 241 244 238 233 231 229 222 219 216 215 216 211 208 211 212 213 213 208 210 220 227 219 216 222 219 221 239 257 272 278 275 233 164 144 133 123 117 116 108 89 66 41 16 2 3 351 323 287 243 214
283 283 281 280 279 277 276 274 272 270 267 266 265 263 260 257 256 256 255 255 252 249 247 247 244 243 248 254 254 240 243 251 251 249 253 256 249 239 237 241 243 236 229 228 227 224 222 221 220 213 212 214 215 218 218 214 214 221 230 224 219 225 222 224 237 255 264 265 266 239 177 148 139 124 115 120 115 98 78 52 21 1 359 3 334 297 260 221
281 281 280 280 278 277 275 274 272 270 269 267 266 264 262 258 256 256 256 255 253 250 248 247 247 244 248 253 248 235 240 246 251 258 266 260 252 247 239 235 241 243 237 232 229 229 227 227 227 224 222 216 217 222 220 218 217 221 230 228 223 226 226 230 239 251 253 254 256 237 193 157 143 127 118 120 115 103 85 58 30 5 354 8 357 305 273 222
280 279 279 279 278 277 275 274 273 271 270 268 267 266 263 260 257 257 257 256 254 252 249 248 249 247 249 255 252 239 239 248 255 259 261 255 248 247 247 243 243 246 247 241 235 233 232 232 230 229 228 222 223 225 222 222 219 221 229 228 223 223 225 232 238 237 242 251 251 226 192 163 143 131 126 120 112 102 83 57 36 14 349 358 15 322 292 237
279 278 278 277 277 276 275 273 272 272 270 269 269 267 264 261 259 257 256 256 255 253 250 248 248 248 249 253 255 249 242 247 254 252 251 252 249 247 247 246 243 241 242 242 241 240 239 238 233 230 230 231 231 229 228 231 225 224 227 224 220 217 220 229 231 228 239 250 236 201 184 168 143 127 122 116 107 98 84 65 48 28 349 343 7 340 311 269
277 277 276 276 275 274 273 272 271 270 270 269 269 268 266 262 260 258 256 256 255 252 250 248 248 249 250 252 254 254 248 244 249 250 250 254 255 251 248 247 245 244 244 245 249 250 248 245 239 233 231 233 235 237 243 253 231 228 226 219 214 210 213 220 225 226 232 236 217 188 177 166 145 127 119 112 104 95 85 77 65 49 0 334 343 343 318 291
275 275 274 274 274 273 272 271 269 267 267 267 266 266 266 263 260 258 257 256 254 252 250 248 248 249 249 251 252 250 248 245 247 249 250 255 259 254 250 251 250 250 249 249 251 252 251 246 241 238 236 238 242 248 252 242 219 225 225 218 212 207 204 208 219 222 220 222 212 186 170 165 153 137 126 117 107 98 87 79 70 58 20 329 320 331 310 289
272 272 272 272 272 272 271 270 269 267 266 265 263 262 262 263 261 258 258 256 253 251 251 248 246 248 249 248 249 249 246 242 242 244 245 251 258 255 250 251 251 250 253 254 250 246 245 246 248 245 243 243 243 246 244 232 219 218 219 214 210 207 199 201 215 217 217 218 211 189 175 171 160 148 143 137 123 111 100 84 68 50 25 331 305 300 289 280
271 270 270 270 269 270 269 268 268 267 266 265 263 261 260 260 259 258 257 256 254 250 249 249 244 244 250 250 247 247 246 241 240 242 243 248 255 257 252 249 248 246 251 251 246 242 238 244 268 248 237 235 236 238 239 231 220 217 216 206 204 203 192 197 210 213 221 217 205 199 187 176 170 167 165 155 137 125 119 103 79 50 29 337 294 271 256 270
270 269 269 269 268 268 267 267 266 266 265 264 263 262 260 258 257 256 254 253 256 251 245 247 246 241 246 251 249 247 247 246 245 244 243 245 252 256 252 248 244 241 242 244 245 245 238 230 272 243 229 230 231 230 231 229 221 219 218 209 205 200 189 194 202 208 223 220 206 208 199 185 185 185 176 163 151 146 145 140 134 102 59 340 279 260 230 247
270 269 268 268 268 267 266 265 264 264 264 264 263 262 261 259 257 257 254 249 251 254 250 244 243 240 242 251 252 247 246 246 247 246 242 241 245 250 251 248 244 239 239 242 248 250 242 233 239 231 224 226 227 227 226 225 221 218 221 218 209 202 195 195 200 206 220 224 215 213 208 197 196 193 180 170 169 169 163 160 159 147 131 187 266 266 228 207
271 270 268 268 267 267 266 264 263 262 262 263 262 262 261 260 258 257 256 251 243 248 256 251 241 236 236 246 252 251 247 243 246 249 245 242 242 245 249 248 243 241 240 243 245 245 241 236 232 227 225 223 222 224 223 224 224 220 222 220 208 205 203 198 203 209 216 224 221 217 216 208 204 201 188 184 185 178 168 160 151 143 147 168 262 277 253 200
272 270 269 268 267 266 265 264 263 262 261 262 261 260 260 260 260 258 257 255 245 239 251 255 250 242 234 238 247 254 252 243 243 249 244 240 239 242 245 245 243 242 242 243 243 242 240 238 234 232 232 229 227 226 224 224 225 225 226 221 206 206 208 202 206 213 216 223 223 223 224 215 209 206 196 198 194 177 169 160 149 148 151 147 176 275 269 217
272 271 270 269 267 267 266 264 262 261 261 261 260 259 259 259 260 259 258 257 251 243 243 248 253 250 242 238 241 247 250 243 240 245 241 235 237 239 239 241 242 241 239 240 242 241 239 240 237 235 236 235 234 233 231 228 226 227 227 223 211 205 208 207 208 215 219 221 222 227 231 221 212 208 202 206 199 181 174 165 155 153 147 136 138 229 268 252
273 272 271 269 267 266 266 264 263 261 260 260 259 258 258 258 258 258 259 258 255 251 244 242 247 249 246 244 243 244 247 242 238 244 243 235 235 238 239 240 241 239 238 239 242 243 244 243 241 239 240 238 238 240 240 237 234 226 220 223 219 206 206 209 210 216 222 222 221 225 232 228 214 208 208 210 204 190 179 168 157 152 144 137 140 165 248 258
276 273 271 270 268 266 266 266 264 262 261 260 258 257 257 257 257 256 258 258 256 254 249 243 243 246 247 246 246 246 246 241 238 243 244 238 234 236 237 238 239 238 238 238 236 234 236 239 239 238 237 235 234 236 237 237 233 211 209 220 222 211 206 209 213 217 222 226 224 222 232 237 217 204 214 214 205 194 179 169 158 148 142 139 142 153 206 246
278 275 273 271 269 267 266 266 265 263 262 260 259 257 256 255 255 255 256 256 256 256 253 247 244 246 247 246 246 247 247 244 240 241 242 241 238 238 237 237 237 236 237 237 232 226 228 231 233 233 233 230 227 227 227 224 213 199 206 214 218 215 208 209 215 216 220 229 232 222 228 241 225 200 213 212 202 195 178 168 159 150 150 147 144 147 169 224
278 277 275 273 271 269 268 266 265 264 262 261 259 258 256 255 254 254 253 253 254 255 255 252 247 245 247 248 246 245 247 246 243 242 243 243 240 240 238 235 235 237 238 238 234 228 228 231 234 235 235 232 227 227 226 221 206 197 204 210 214 214 209 212 217 216 222 235 241 226 224 239 234 201 209 210 196 197 185 175 168 161 159 154 148 146 150 185
275 275 274 274 272 270 268 267 266 265 263 261 260 258 256 255 253 252 251 251 253 253 253 252 249 246 247 249 248 245 245 246 245 244 244 244 242 241 240 237 237 239 240 241 238 235 232 233 238 242 240 235 230 228 228 226 213 202 204 209 213 213 210 214 218 219 230 247 248 229 224 237 234 190 203 209 190 196 191 180 177 171 165 160 156 153 154 161
272 272 272 272 271 270 268 267 265 265 263 262 260 258 257 255 253 251 250 250 251 251 251 251 250 247 246 248 249 247 244 243 244 245 245 244 244 244 244 244 243 243 245 247 245 241 238 237 240 242 240 236 232 230 229 229 225 216 213 214 217 216 214 219 224 228 243 261 252 234 228 237 234 173 198 203 180 186 187 183 185 180 174 170 166 162 164 168
272 270 269 268 268 268 267 266 263 262 262 261 260 258 257 255 252 250 250 250 250 249 249 250 249 248 246 246 248 248 245 241 240 242 243 243 242 240 240 239 239 239 240 240 236 234 235 234 234 237 238 237 234 232 232 235 236 233 230 228 228 227 227 232 236 241 253 261 255 240 231 239 245 209 204 201 187 184 184 188 192 190 187 182 174 170 172 176
275 271 268 266 265 264 264 263 261 259 257 257 258 257 256 255 253 251 250 249 248 247 248 249 249 247 245 244 244 245 245 242 238 238 241 242 241 239 238 238 237 237 235 232 230 230 230 230 229 231 234 236 236 235 236 238 237 236 236 236 237 239 242 246 248 251 258 258 256 247 238 246 265 250 227 219 213 201 192 194 197 198 196 191 185 182 183 185
279 275 271 267 264 262 260 259 258 256 255 253 253 254 255 255 255 253 251 250 248 247 247 247 247 247 245 243 242 242 244 244 240 238 238 241 242 239 238 240 240 239 238 235 233 233 234 232 228 227 226 225 227 227 228 231 231 230 229 229 234 241 245 246 246 248 254 255 255 257 255 263 276 266 251 235 227 221 210 200 200 203 200 197 195 192 195 196
281 278 274 270 267 264 261 258 256 255 254 252 251 251 253 253 253 253 252 251 249 247 246 245 245 246 245 243 241 240 240 242 241 239 236 238 240 238 235 235 235 236 236 235 234 234 235 232 226 229 228 223 222 222 225 227 226 229 229 228 234 240 240 242 242 242 247 252 254 258 262 266 265 261 256 244 235 232 228 211 203 205 204 205 203 198 200 201
282 279 276 273 270 268 264 260 257 255 254 252 250 250 250 249 249 250 251 250 249 246 245 244 243 243 244 243 241 238 237 238 240 239 237 236 237 237 235 233 231 231 231 231 229 229 230 225 220 226 227 224 224 224 226 226 223 226 227 225 230 234 232 235 237 235 239 247 252 253 257 261 259 257 256 253 244 236 238 232 219 212 209 210 207 202 200 199
283 280 277 274 271 269 266 263 260 257 255 253 250 248 247 246 245 246 247 247 247 246 244 243 242 241 241 241 240 238 236 235 237 238 237 236 236 236 236 235 233 232 232 231 229 228 228 224 219 220 221 221 224 226 226 226 225 226 224 220 226 230 230 234 238 236 237 245 253 256 259 262 260 263 264 258 253 244 241 242 238 229 221 218 214 211 207 205
284 282 278 274 272 270 267 264 261 258 256 254 251 248 246 244 243 242 243 244 244 244 244 242 241 240 239 240 239 238 236 234 234 235 236 236 236 235 235 236 235 235 235 235 233 231 231 229 224 220 219 219 223 226 226 225 226 226 225 223 226 230 232 235 241 242 242 247 255 260 264 265 259 265 272 266 258 252 246 244 245 243 235 228 222 222 222 219
286 284 280 276 273 271 268 265 262 259 256 254 252 249 246 243 242 240 240 240 241 242 242 241 240 239 238 238 238 237 236 234 232 233 234 236 236 236 235 235 235 236 236 236 237 235 234 234 230 223 220 222 225 228 228 226 226 227 229 229 231 235 235 235 239 242 243 245 250 255 251 158 128 251 261 263 256 249 248 248 248 250 247 239 229 225 228 232
289 286 283 278 275 273 269 266 263 260 257 254 251 249 246 244 242 240 239 239 239 239 240 240 239 238 237 236 236 236 235 234 231 231 232 234 236 236 235 235 234 235 235 235 236 236 235 235 233 227 224 226 228 230 230 229 228 229 231 231 234 238 240 240 241 243 247 249 252 256 250 218 199 237 234 241 243 231 233 238 240 245 247 243 238 230 225 231
295 292 287 281 279 277 272 268 264 261 258 255 251 249 246 243 241 239 238 238 237 237 237 237 237 237 236 234 234 234 234 233 231 230 230 232 234 235 235 234 233 234 234 234 235 235 235 236 235 231 228 230 230 229 230 229 228 229 230 228 229 233 237 240 243 245 251 254 255 258 255 242 230 233 227 232 237 231 228 227 228 233 232 230 232 229 221 220
301 298 293 289 285 282 277 272 267 262 259 255 252 249 246 243 240 238 236 236 235 235 235 235 235 235 234 233 232 232 232 232 231 230 230 230 232 234 235 234 233 233 233 233 233 234 234 235 236 233 231 231 229 227 228 228 228 229 229 226 225 229 232 237 240 242 246 248 249 253 251 236 220 228 230 231 233 235 236 234 233 233 228 225 224 221 218 218
305 302 298 295 294 291 286 279 272 266 261 256 252 248 245 242 239 236 234 233 233 233 233 233 233 233 233 232 231 230 230 230 230 230 229 230 230 232 233 234 233 232 232 232 232 233 233 234 235 233 230 229 226 225 227 227 227 230 230 227 227 228 230 233 235 236 239 240 240 245 245 235 221 218 220 226 228 229 232 235 238 237 234 233 228 220 218 219
307 304 301 301 302 301 297 291 282 272 264 258 252 247 243 241 238 235 233 231 231 231 231 231 231 231 231 231 230 228 228 227 228 229 228 228 229 230 231 233 233 232 231 232 232 232 232 233 234 233 231 230 229 227 227 228 229 232 232 230 229 228 229 232 235 237 239 239 238 241 244 242 231 215 212 223 225 224 227 232 238 240 238 240 235 223 218 219
310 306 303 304 307 307 305 302 295 282 269 259 250 244 240 237 236 234 231 229 228 229 229 229 230 230 229 229 229 227 226 225 225 227 227 227 227 228 229 231 232 232 231 231 231 232 232 232 233 233 232 231 231 230 229 229 231 233 234 233 232 231 230 232 236 239 241 242 241 242 246 247 242 227 214 215 221 222 224 229 236 239 238 241 239 229 224 223
313 309 306 307 309 310 310 310 307 295 278 261 249 242 236 231 230 230 230 229 227 227 228 227 228 229 229 228 228 227 225 224 223 224 225 226 225 225 227 228 230 230 231 232 231 232 232 231 232 233 232 231 232 231 230 230 231 233 235 236 235 234 233 234 238 241 243 243 243 244 247 250 249 241 226 215 218 223 224 229 234 234 233 235 237 237 233 229
315 311 311 313 313 312 315 316 315 309 296 277 259 247 236 230 227 224 223 227 228 227 228 227 227 228 228 228 227 227 225 223 221 221 222 224 225 224 224 225 227 229 230 231 231 232 232 232 232 233 233 232 231 231 231 231 232 233 235 237 237 236 237 239 242 244 244 246 247 246 247 249 250 247 238 223 221 226 225 229 233 233 232 230 231 236 234 230
317 314 315 318 317 314 317 318 316 314 309 296 280 263 245 236 232 225 215 213 221 226 227 228 228 228 228 228 227 227 226 224 221 220 220 222 223 223 222 222 224 227 229 230 231 231 232 232 233 233 234 233 232 231 231 232 233 234 235 237 237 238 239 241 242 242 243 246 247 244 244 245 245 246 244 231 224 229 228 230 235 237 236 232 231 232 230 228
319 317 317 319 316 314 315 317 315 315 315 307 297 284 261 243 239 232 220 208 207 216 222 225 228 230 229 229 229 227 226 225 223 220 219 220 221 221 221 221 222 224 226 228 230 231 231 231 232 234 234 234 233 233 232 232 233 234 235 236 238 239 240 240 241 241 241 242 243 242 242 242 241 244 247 239 230 229 230 232 237 239 238 234 231 231 229 227
320 318 319 320 318 315 312 312 312 314 316 312 306 301 282 254 240 236 228 217 210 211 216 218 223 228 230 230 231 229 227 226 224 222 220 219 218 219 220 220 221 222 223 225 228 229 230 231 232 233 234 234 233 234 233 232 233 234 235 235 237 238 239 240 240 241 242 243 242 242 242 242 240 244 248 247 240 233 229 229 232 237 240 238 233 230 230 230
322 319 320 322 321 317 311 308 308 310 312 313 308 306 301 280 254 239 237 229 221 219 220 218 217 219 224 229 232 231 229 227 225 223 221 219 218 218 218 219 219 220 221 223 226 228 229 230 231 232 233 233 232 233 234 233 233 234 234 233 234 237 239 240 240 241 242 243 244 245 245 243 241 242 243 243 243 238 231 226 227 231 236 239 237 231 229 230
Height
5884 5883 5883 5882 5881 5881 5880 5879 5879 5878 5878 5877 5877 5876 5875 5875 5874 5874 5873 5872 5871 5871 5870 5870 5870 5870 5870 5870 5870 5870 5870 5871 5871 5871 5872 5874 5875 5875 5875 5875 5876 5877 5878 5879 5881 5882 5883 5884 5885 5886 5886 5887 5887 5888 5889 5891 5892 5892 5893 5893 5893 5893 5894 5894 5894 5895 5894 5893 5893 5892 5892 5893 5893 5892 5891 5891 5891 5892 5892 5893 5894 5894 5895 5895 5896 5896 5896 5897
5882 5882 5881 5881 5880 5880 5879 5879 5878 5878 5877 5877 5876 5876 5875 5875 5874 5873 5873 5872 5871 5870 5870 5869 5869 5868 5869 5869 5869 5869 5869 5869 5870 5870 5870 5872 5874 5874 5874 5875 5875 5876 5877 5879 5880 5881 5882 5883 5883 5884 5885 5886 5886 5887 5889 5890 5891 5892 5893 5893 5892 5893 5893 5893 5894 5895 5894 5893 5892 5892 5892 5892 5893 5892 5891 5891 5891 5892 5893 5893 5894 5894 5895 5895 5896 5896 5896 5897
5881 5880 5880 5879 5879 5878 5878 5877 5877 5877 5876 5876 5876 5875 5875 5874 5873 5873 5872 5872 5871 5870 5869 5869 5868 5867 5867 5868 5868 5868 5868 5868 5868 5869 5869 5871 5872 5873 5874 5875 5875 5875 5875 5876 5877 5878 5879 5879 5880 5881 5883 5885 5886 5887 5888 5889 5890 5891 5892 5892 5892 5892 5893 5893 5894 5894 5893 5893 5892 5892 5891 5892 5892 5892 5891 5891 5891 5892 5893 5894 5894 5895 5895 5895 5895 5896 5896 5896
5879 5879 5878 5878 5877 5877 5876 5876 5875 5875 5875 5875 5874 5874 5874 5873 5873 5872 5872 5871 5870 5870 5869 5869 5868 5867 5866 5867 5867 5867 5867 5867 5867 5868 5868 5869 5871 5871 5873 5873 5873 5874 5874 5875 5875 5876 5876 5876 5878 5880 5882 5883 5885 5887 5888 5888 5889 5890 5891 5891 5892 5892 5892 5892 5893 5893 5893 5892 5892 5891 5890 5891 5891 5891 5891 5891 5892 5893 5894 5894 5894 5895 5895 5895 5895 5895 5895 5896
5877 5877 5876 5876 5875 5875 5874 5874 5874 5873 5873 5873 5873 5873 5872 5872 5872 5872 5871 5870 5870 5869 5869 5868 5868 5866 5866 5866 5866 5866 5866 5866 5866 5866 5867 5867 5869 5870 5871 5872 5872 5873 5873 5874 5875 5875 5876 5877 5879 5880 5882 5884 5885 5887 5887 5887 5888 5889 5890 5890 5891 5891 5891 5891 5892 5892 5892 5892 5892 5891 5890 5890 5890 5891 5891 5892 5893 5893 5894 5894 5894 5895 5896 5896 5896 5895 5895 5895
5875 5875 5874 5874 5873 5873 5873 5872 5872 5871 5871 5871 5871 5871 5871 5871 5871 5870 5870 5869 5869 5868 5868 5868 5867 5866 5865 5865 5865 5865 5865 5865 5865 5865 5865 5866 5866 5867 5869 5870 5871 5872 5872 5873 5874 5875 5876 5878 5879 5881 5882 5883 5885 5886 5885 5886 5887 5888 5889 5889 5890 5890 5890 5890 5891 5891 5891 5892 5893 5892 5891 5890 5889 5890 5891 5892 5893 5893 5894 5894 5894 5894 5895 5896 5896 5895 5895 5894
5873 5873 5872 5872 5871 5871 5871 5870 5870 5870 5869 5869 5869 5869 5869 5870 5870 5869 5869 5868 5868 5867 5867 5867 5866 5866 5865 5864 5864 5865 5864 5864 5864 5864 5864 5864 5865 5865 5866 5868 5869 5871 5871 5872 5873 5875 5876 5877 5879 5880 5881 5882 5884 5884 5884 5885 5886 5887 5888 5888 5888 5888 5889 5889 5890 5890 5891 5891 5892 5892 5892 5891 5890 5890 5891 5892 5893 5893 5893 5894 5894 5894 5895 5896 5895 5895 5895 5894
5871 5870 5870 5869 5869 5868 5868 5868 5868 5867 5867 5867 5867 5867 5868 5868 5868 5868 5867 5867 5866 5866 5866 5866 5865 5865 5864 5864 5864 5863 5863 5863 5863 5863 5863 5863 5863 5864 5865 5866 5867 5869 5870 5871 5872 5873 5875 5876 5877 5878 5879 5881 5882 5882 5882 5884 5885 5887 5887 5887 5887 5887 5888 5888 5889 5890 5890 5891 5891 5892 5892 5891 5890 5890 5890 5891 5892 5893 5893 5893 5894 5894 5895 5895 5895 5895 5895 5895
5868 5868 5867 5867 5866 5866 5866 5865 5865 5865 5865 5865 5865 5866 5866 5867 5866 5866 5865 5865 5865 5865 5864 5864 5864 5864 5863 5863 5863 5862 5862 5862 5862 5862 5863 5863 5862 5862 5863 5864 5865 5867 5868 5869 5870 5871 5873 5875 5876 5876 5878 5879 5879 5880 5881 5883 5884 5885 5885 5885 5886 5887 5888 5888 5889 5890 5890 5891 5891 5891 5892 5892 5891 5890 5890 5891 5892 5892 5893 5894 5894 5895 5895 5895 5895 5895 5895 5895
5866 5865 5865 5864 5864 5863 5863 5863 5863 5862 5862 5862 5863 5864 5864 5865 5864 5864 5864 5864 5863 5863 5863 5863 5863 5862 5862 5862 5861 5861 5862 5861 5861 5861 5862 5862 5862 5861 5861 5862 5863 5865 5866 5868 5869 5870 5872 5873 5873 5873 5874 5875 5876 5878 5880 5882 5883 5883 5883 5884 5886 5886 5888 5888 5889 5890 5891 5891 5891 5891 5891 5892 5891 5891 5890 5890 5891 5892 5893 5894 5895 5895 5895 5896 5895 5895 5895 5895
5864 5863 5862 5862 5861 5861 5860 5860 5860 5859 5859 5859 5860 5861 5862 5862 5862 5861 5862 5862 5862 5861 5861 5861 5861 5861 5861 5860 5860 5861 5861 5860 5860 5860 5860 5861 5861 5860 5860 5861 5862 5863 5864 5866 5867 5869 5869 5870 5870 5870 5871 5872 5874 5876 5878 5880 5881 5881 5882 5884 5885 5885 5887 5888 5889 5890 5890 5891 5892 5891 5891 5891 5891 5891 5891 5891 5891 5892 5893 5894 5895 5895 5895 5895 5895 5895 5894 5894
5861 5861 5860 5859 5859 5858 5858 5858 5857 5856 5856 5856 5858 5859 5859 5859 5859 5859 5859 5860 5860 5860 5860 5860 5860 5859 5859 5858 5859 5860 5860 5859 5859 5858 5858 5860 5860 5860 5859 5859 5860 5861 5862 5864 5865 5866 5867 5867 5867 5869 5871 5872 5873 5874 5876 5878 5878 5878 5879 5882 5883 5884 5886 5887 5888 5889 5890 5891 5892 5892 5891 5891 5891 5891 5891 5891 5891 5892 5892 5893 5894 5894 5895 5895 5895 5895 5894 5894
5859 5859 5858 5857 5857 5856 5856 5855 5855 5854 5853 5854 5855 5856 5856 5856 5856 5857 5857 5857 5858 5858 5858 5858 5858 5858 5857 5856 5857 5859 5858 5857 5857 5857 5857 5858 5859 5859 5858 5858 5859 5860 5861 5862 5863 5863 5864 5865 5866 5869 5870 5870 5871 5872 5874 5875 5876 5876 5877 5880 5882 5883 5886 5886 5886 5888 5889 5889 5891 5892 5891 5891 5891 5891 5891 5892 5891 5891 5892 5893 5893 5893 5894 5894 5895 5895 5894 5894
5857 5856 5856 5855 5854 5854 5854 5853 5853 5851 5851 5851 5852 5853 5853 5853 5854 5854 5854 5855 5855 5856 5856 5856 5856 5856 5855 5854 5855 5857 5856 5856 5855 5855 5856 5857 5857 5857 5857 5857 5857 5858 5858 5859 5860 5861 5862 5863 5864 5865 5866 5868 5869 5870 5872 5873 5874 5874 5875 5878 5880 5882 5884 5885 5885 5887 5888 5888 5890 5891 5891 5891 5891 5891 5891 5891 5891 5891 5892 5893 5893 5892 5893 5894 5895 5895 5894 5894
5855 5854 5853 5853 5852 5851 5851 5851 5850 5849 5848 5849 5849 5850 5850 5850 5851 5851 5851 5852 5852 5853 5853 5853 5853 5854 5853 5852 5853 5854 5854 5853 5853 5854 5855 5855 5855 5855 5855 5856 5856 5856 5856 5857 5858 5859 5860 5860 5862 5863 5864 5866 5867 5867 5869 5871 5872 5873 5873 5876 5879 5880 5883 5883 5884 5886 5886 5887 5889 5890 5890 5890 5890 5890 5891 5891 5891 5891 5891 5892 5892 5892 5892 5893 5894 5895 5895 5894
5852 5851 5850 5850 5849 5849 5849 5848 5848 5846 5846 5846 5847 5846 5846 5847 5847 5848 5848 5849 5849 5850 5850 5850 5850 5851 5851 5850 5850 5852 5852 5851 5852 5853 5853 5853 5853 5853 5854 5855 5855 5855 5855 5855 5856 5857 5857 5858 5860 5862 5863 5864 5864 5865 5867 5868 5869 5871 5872 5874 5877 5879 5881 5881 5883 5885 5885 5885 5888 5889 5888 5889 5889 5889 5890 5890 5890 5890 5891 5892 5892 5892 5892 5893 5894 5895 5895 5894
5848 5847 5847 5846 5846 5845 5845 5845 5845 5844 5843 5844 5844 5843 5843 5843 5844 5844 5845 5846 5847 5847 5847 5847 5847 5848 5848 5847 5847 5849 5850 5850 5850 5851 5851 5850 5851 5852 5853 5853 5853 5853 5853 5854 5855 5855 5856 5857 5858 5860 5861 5862 5863 5864 5865 5866 5868 5869 5871 5873 5876 5877 5879 5880 5881 5883 5883 5884 5886 5886 5886 5887 5887 5887 5888 5888 5889 5890 5890 5891 5891 5891 5892 5893 5894 5895 5895 5895
5844 5843 5843 5842 5841 5841 5842 5842 5842 5841 5840 5840 5841 5840 5840 5840 5840 5841 5842 5843 5843 5844 5844 5844 5845 5845 5845 5845 5845 5846 5847 5848 5847 5848 5848 5848 5849 5850 5851 5851 5851 5851 5852 5853 5854 5854 5855 5855 5856 5857 5858 5859 5861 5862 5864 5866 5868 5868 5870 5872 5874 5876 5877 5879 5880 5881 5882 5882 5884 5884 5885 5885 5885 5885 5886 5887 5888 5889 5890 5890 5890 5891 5892 5893 5894 5895 5895 5895
5840 5839 5838 5838 5837 5836 5837 5838 5838 5838 5837 5837 5837 5837 5836 5836 5837 5837 5838 5839 5840 5840 5841 5842 5842 5842 5842 5842 5842 5843 5844 5845 5846 5846 5846 5846 5847 5848 5849 5849 5849 5850 5850 5852 5852 5853 5853 5853 5854 5855 5856 5858 5860 5862 5864 5866 5867 5867 5868 5870 5872 5873 5875 5877 5878 5879 5879 5879 5881 5883 5883 5883 5883 5883 5884 5885 5886 5887 5888 5889 5889 5890 5891 5893 5893 5895 5895 5895
5835 5835 5834 5833 5833 5832 5832 5833 5833 5833 5833 5833 5833 5834 5833 5833 5833 5834 5835 5836 5836 5837 5837 5838 5839 5839 5839 5838 5838 5839 5841 5842 5843 5844 5844 5843 5844 5845 5846 5847 5847 5848 5849 5850 5850 5850 5851 5851 5853 5854 5856 5858 5859 5861 5862 5864 5865 5865 5866 5867 5869 5871 5873 5876 5876 5876 5876 5877 5880 5881 5880 5881 5881 5882 5882 5883 5884 5885 5887 5888 5889 5889 5891 5892 5893 5894 5894 5895
5830 5830 5829 5828 5828 5827 5827 5828 5828 5829 5829 5829 5829 5829 5829 5829 5829 5830 5831 5832 5832 5833 5834 5835 5835 5837 5836 5834 5834 5836 5836 5839 5841 5841 5841 5841 5841 5842 5844 5844 5845 5846 5847 5847 5846 5847 5849 5851 5852 5853 5854 5855 5856 5858 5860 5862 5863 5864 5864 5865 5867 5869 5872 5874 5874 5874 5874 5875 5878 5878 5878 5879 5880 5880 5880 5881 5881 5883 5884 5886 5887 5888 5890 5891 5892 5893 5894 5894
5824 5824 5824 5823 5822 5822 5822 5822 5823 5824 5824 5824 5824 5824 5824 5825 5824 5825 5827 5829 5829 5828 5831 5832 5831 5834 5834 5829 5830 5832 5833 5837 5838 5837 5838 5839 5839 5840 5840 5841 5843 5844 5844 5843 5844 5845 5848 5850 5851 5851 5851 5852 5853 5855 5857 5859 5860 5861 5863 5864 5865 5868 5871 5871 5872 5873 5873 5873 5875 5875 5875 5876 5876 5877 5878 5879 5879 5880 5882 5884 5886 5887 5888 5890 5891 5892 5893 5894
5818 5818 5818 5817 5817 5816 5816 5816 5818 5819 5818 5818 5819 5819 5819 5819 5820 5820 5821 5825 5826 5824 5826 5828 5827 5831 5831 5826 5824 5826 5831 5835 5834 5833 5835 5836 5837 5837 5836 5838 5840 5840 5840 5841 5842 5844 5846 5848 5848 5848 5848 5849 5850 5852 5853 5855 5857 5858 5860 5862 5865 5868 5868 5869 5871 5871 5870 5870 5871 5872 5872 5873 5874 5875 5876 5877 5878 5878 5878 5880 5882 5885 5887 5889 5890 5890 5892 5892
5811 5811 5811 5811 5811 5810 5810 5810 5811 5812 5812 5812 5813 5813 5813 5814 5814 5815 5815 5818 5823 5823 5820 5821 5823 5827 5827 5823 5819 5822 5828 5832 5830 5830 5831 5833 5834 5833 5833 5835 5836 5836 5838 5839 5840 5841 5843 5845 5845 5846 5846 5846 5847 5848 5850 5852 5854 5856 5857 5860 5865 5866 5866 5868 5868 5867 5867 5867 5868 5869 5869 5869 5871 5873 5876 5876 5876 5876 5876 5877 5879 5882 5885 5887 5889 5889 5890 5891
5804 5804 5804 5804 5804 5804 5803 5804 5805 5805 5806 5806 5806 5807 5807 5808 5808 5809 5810 5811 5817 5821 5818 5815 5817 5820 5822 5820 5818 5819 5823 5827 5828 5826 5826 5829 5830 5830 5831 5831 5831 5834 5836 5837 5837 5838 5840 5842 5842 5843 5844 5845 5845 5846 5848 5850 5852 5854 5855 5859 5863 5864 5864 5865 5865 5864 5864 5864 5866 5867 5865 5866 5869 5871 5874 5874 5874 5875 5876 5876 5877 5880 5883 5885 5888 5888 5889 5890
5796 5796 5796 5796 5797 5798 5797 5798 5798 5798 5799 5799 5800 5801 5801 5801 5801 5802 5804 5804 5808 5815 5816 5812 5811 5813 5816 5816 5816 5816 5817 5823 5825 5820 5821 5826 5826 5826 5826 5826 5829 5832 5833 5833 5833 5835 5838 5839 5839 5841 5842 5843 5844 5845 5846 5848 5849 5851 5855 5858 5859 5860 5861 5863 5863 5862 5861 5862 5864 5864 5862 5863 5865 5868 5870 5872 5873 5873 5874 5874 5875 5878 5881 5883 5886 5888 5888 5889
5787 5788 5788 5788 5790 5791 5791 5791 5791 5790 5791 5791 5792 5794 5794 5795 5796 5796 5797 5797 5800 5807 5810 5809 5807 5807 5810 5811 5812 5812 5813 5818 5820 5815 5817 5823 5822 5822 5822 5824 5827 5829 5830 5829 5830 5834 5836 5836 5837 5839 5840 5841 5842 5845 5846 5846 5847 5851 5854 5854 5855 5857 5859 5860 5860 5859 5858 5860 5860 5860 5860 5860 5861 5865 5868 5869 5871 5871 5872 5873 5874 5875 5878 5882 5884 5887 5887 5888
5779 5780 5780 5779 5781 5783 5784 5784 5784 5783 5783 5783 5784 5786 5787 5788 5789 5790 5791 5791 5793 5797 5802 5804 5803 5801 5804 5805 5806 5807 5808 5813 5814 5811 5813 5816 5817 5817 5818 5821 5825 5826 5825 5826 5829 5833 5833 5833 5834 5836 5836 5837 5841 5843 5844 5844 5846 5849 5850 5850 5852 5854 5855 5856 5856 5856 5857 5856 5855 5857 5858 5856 5858 5863 5865 5866 5868 5870 5871 5872 5873 5874 5877 5880 5883 5885 5886 5887
5770 5771 5771 5771 5773 5774 5775 5777 5777 5776 5775 5775 5776 5778 5780 5781 5782 5783 5783 5785 5787 5789 5793 5798 5798 5797 5797 5799 5801 5802 5803 5806 5808 5807 5808 5810 5813 5814 5816 5819 5821 5820 5820 5822 5827 5829 5829 5829 5830 5831 5831 5834 5838 5840 5841 5842 5844 5846 5846 5846 5849 5850 5852 5853 5852 5853 5854 5849 5849 5856 5857 5853 5855 5859 5861 5863 5866 5870 5872 5872 5871 5873 5875 5877 5880 5883 5885 5886
5762 5762 5762 5763 5765 5766 5766 5767 5768 5768 5767 5767 5767 5769 5770 5772 5774 5775 5775 5779 5782 5783 5785 5789 5791 5792 5791 5793 5795 5797 5798 5800 5802 5803 5803 5805 5808 5809 5811 5814 5815 5815 5816 5818 5822 5825 5825 5826 5826 5827 5830 5833 5835 5836 5837 5840 5841 5841 5842 5843 5844 5845 5848 5848 5847 5850 5849 5842 5844 5853 5855 5852 5852 5854 5858 5861 5865 5870 5871 5871 5870 5870 5872 5875 5878 5880 5883 5885
5753 5753 5753 5755 5756 5757 5757 5757 5758 5759 5759 5759 5759 5760 5761 5762 5764 5765 5769 5775 5776 5776 5778 5779 5783 5786 5786 5786 5788 5791 5793 5794 5796 5798 5798 5800 5803 5804 5806 5808 5810 5811 5812 5814 5819 5821 5822 5822 5824 5826 5829 5830 5832 5833 5835 5837 5837 5837 5838 5839 5839 5840 5843 5843 5843 5845 5841 5837 5843 5850 5852 5851 5849 5852 5856 5860 5864 5867 5869 5869 5869 5869 5870 5872 5875 5878 5880 5883
5744 5744 5745 5746 5747 5747 5748 5749 5749 5749 5749 5750 5751 5752 5752 5752 5754 5758 5765 5769 5768 5768 5770 5771 5775 5779 5780 5781 5782 5784 5787 5789 5791 5792 5793 5795 5797 5800 5802 5804 5806 5807 5808 5812 5817 5817 5818 5820 5822 5823 5825 5827 5829 5831 5832 5833 5834 5835 5835 5835 5835 5836 5837 5837 5838 5839 5837 5837 5841 5848 5850 5848 5847 5852 5856 5859 5862 5865 5867 5869 5869 5869 5870 5870 5872 5875 5877 5880
5734 5735 5735 5736 5736 5737 5738 5740 5741 5740 5740 5739 5741 5742 5743 5742 5746 5753 5758 5759 5758 5760 5762 5763 5767 5771 5773 5775 5775 5777 5780 5783 5785 5785 5786 5789 5791 5794 5797 5798 5801 5802 5804 5809 5811 5811 5813 5815 5817 5818 5821 5824 5826 5828 5830 5831 5832 5833 5834 5833 5832 5833 5833 5833 5834 5836 5836 5837 5839 5845 5847 5844 5845 5851 5855 5857 5860 5863 5865 5867 5868 5869 5870 5871 5872 5873 5875 5877
5722 5723 5725 5726 5726 5727 5727 5728 5729 5730 5730 5729 5730 5731 5732 5734 5740 5745 5747 5747 5749 5752 5754 5756 5758 5761 5765 5767 5768 5771 5773 5774 5778 5780 5781 5782 5784 5788 5790 5792 5794 5796 5799 5802 5804 5806 5808 5809 5813 5816 5819 5821 5823 5825 5828 5828 5828 5830 5832 5831 5831 5831 5830 5831 5833 5834 5836 5836 5836 5840 5842 5841 5844 5850 5853 5856 5858 5860 5863 5865 5866 5867 5869 5870 5871 5872 5873 5875
5710 5710 5712 5714 5715 5716 5716 5716 5716 5717 5718 5719 5720 5719 5723 5729 5733 5733 5734 5737 5740 5743 5746 5748 5750 5752 5755 5758 5762 5765 5765 5767 5771 5774 5775 5776 5778 5782 5786 5789 5791 5792 5795 5797 5799 5803 5803 5806 5811 5813 5814 5816 5818 5821 5822 5822 5823 5825 5826 5826 5828 5831 5830 5830 5832 5833 5835 5834 5832 5835 5837 5840 5843 5846 5849 5853 5855 5858 5860 5862 5864 5865 5867 5869 5869 5870 5872 5873
5698 5696 5697 5700 5702 5703 5703 5703 5703 5704 5705 5707 5708 5710 5716 5721 5721 5720 5723 5727 5730 5734 5736 5739 5741 5743 5745 5749 5754 5757 5759 5761 5764 5766 5769 5771 5772 5775 5780 5782 5784 5786 5787 5790 5794 5797 5798 5803 5808 5807 5808 5812 5814 5816 5816 5816 5819 5819 5820 5824 5829 5830 5828 5828 5829 5831 5832 5830 5829 5832 5834 5838 5841 5841 5845 5849 5852 5856 5857 5859 5862 5863 5865 5866 5867 5868 5870 5873
5684 5682 5682 5686 5688 5687 5687 5689 5690 5691 5692 5694 5697 5702 5707 5708 5708 5710 5713 5716 5719 5722 5725 5728 5731 5734 5736 5739 5744 5748 5752 5754 5756 5758 5761 5763 5764 5767 5771 5773 5776 5778 5778 5781 5786 5789 5791 5797 5801 5800 5804 5809 5810 5810 5810 5810 5813 5813 5817 5825 5826 5823 5822 5823 5824 5827 5827 5824 5826 5830 5832 5835 5837 5839 5843 5847 5850 5853 5855 5857 5859 5861 5862 5864 5865 5867 5868 5871
5668 5666 5666 5670 5672 5671 5672 5674 5675 5677 5679 5681 5685 5691 5693 5694 5698 5700 5701 5703 5707 5710 5714 5717 5721 5725 5727 5729 5733 5738 5743 5746 5749 5751 5752 5754 5756 5760 5763 5765 5769 5771 5771 5775 5779 5782 5785 5789 5793 5795 5799 5803 5803 5802 5802 5804 5807 5810 5816 5820 5817 5815 5818 5820 5820 5822 5823 5822 5824 5829 5831 5832 5835 5838 5841 5845 5848 5850 5852 5854 5856 5858 5860 5861 5863 5865 5867 5868
5651 5648 5648 5653 5655 5653 5655 5658 5661 5663 5665 5668 5672 5676 5678 5682 5686 5688 5688 5691 5695 5698 5702 5706 5710 5714 5717 5720 5723 5728 5734 5738 5741 5742 5743 5745 5748 5752 5756 5758 5763 5765 5767 5771 5775 5778 5781 5784 5788 5792 5794 5796 5794 5792 5794 5799 5805 5809 5812 5812 5811 5812 5816 5816 5816 5819 5822 5823 5824 5828 5830 5830 5833 5837 5839 5842 5845 5847 5849 5851 5852 5854 5857 5859 5861 5863 5865 5866
5634 5631 5629 5634 5635 5634 5637 5641 5645 5648 5650 5653 5657 5660 5665 5669 5672 5674 5675 5678 5683 5687 5690 5694 5699 5703 5707 5710 5714 5718 5724 5729 5732 5733 5734 5737 5740 5744 5748 5752 5756 5759 5762 5766 5769 5773 5778 5779 5783 5789 5789 5788 5786 5786 5791 5798 5803 5805 5806 5808 5809 5810 5812 5812 5813 5815 5819 5821 5822 5825 5828 5829 5832 5835 5837 5839 5841 5843 5845 5847 5849 5851 5853 5855 5857 5859 5862 5864
5619 5616 5613 5615 5616 5615 5619 5623 5626 5630 5632 5636 5641 5645 5650 5655 5658 5661 5662 5666 5671 5675 5677 5682 5686 5691 5697 5700 5704 5709 5714 5718 5722 5723 5726 5730 5732 5736 5740 5745 5749 5752 5755 5759 5762 5767 5771 5771 5775 5782 5783 5782 5783 5786 5791 5797 5799 5801 5803 5805 5808 5809 5809 5808 5809 5813 5816 5818 5820 5822 5824 5827 5832 5834 5835 5836 5838 5839 5841 5843 5845 5847 5849 5851 5853 5856 5858 5861
5608 5604 5599 5600 5600 5599 5603 5606 5608 5612 5615 5619 5624 5629 5635 5639 5644 5647 5650 5654 5658 5661 5664 5669 5673 5679 5685 5689 5694 5699 5703 5707 5711 5713 5717 5722 5724 5728 5732 5736 5741 5744 5748 5752 5755 5759 5763 5764 5768 5775 5778 5778 5781 5785 5788 5791 5794 5795 5796 5800 5803 5803 5802 5803 5807 5813 5815 5815 5817 5818 5818 5824 5831 5833 5833 5835 5836 5837 5839 5840 5842 5843 5845 5847 5849 5852 5854 5856
5600 5595 5589 5588 5588 5587 5589 5592 5593 5596 5599 5603 5607 5613 5618 5622 5627 5632 5637 5640 5644 5648 5653 5657 5661 5666 5671 5676 5683 5689 5693 5697 5700 5704 5708 5713 5716 5720 5724 5728 5733 5737 5740 5745 5748 5752 5755 5757 5762 5768 5772 5774 5777 5780 5782 5784 5787 5786 5787 5793 5795 5795 5798 5801 5806 5812 5810 5809 5813 5814 5813 5820 5828 5831 5832 5833 5834 5835 5837 5838 5839 5841 5842 5844 5846 5848 5851 5853
5594 5590 5583 5580 5579 5577 5578 5581 5582 5583 5585 5588 5593 5597 5601 5605 5611 5618 5623 5626 5630 5636 5640 5644 5648 5652 5657 5665 5673 5678 5683 5687 5690 5694 5699 5703 5708 5712 5716 5719 5723 5728 5732 5736 5741 5745 5747 5750 5754 5759 5764 5766 5769 5772 5774 5776 5778 5778 5781 5787 5789 5793 5797 5798 5802 5804 5801 5803 5809 5809 5808 5816 5826 5829 5830 5831 5833 5834 5835 5836 5837 5838 5840 5841 5843 5845 5847 5849
5588 5586 5580 5576 5574 5572 5570 5571 5573 5574 5574 5576 5580 5584 5587 5592 5597 5604 5609 5612 5618 5623 5626 5629 5633 5639 5646 5654 5660 5666 5672 5677 5680 5684 5689 5693 5699 5704 5707 5710 5714 5719 5724 5728 5733 5737 5739 5743 5746 5750 5755 5759 5761 5763 5766 5769 5771 5773 5776 5781 5785 5790 5792 5794 5798 5797 5795 5799 5804 5804 5806 5815 5822 5826 5828 5829 5830 5832 5833 5833 5834 5836 5837 5838 5840 5842 5844 5846
5582 5581 5578 5574 5571 5568 5565 5564 5565 5565 5565 5567 5570 5571 5576 5581 5585 5590 5594 5600 5606 5610 5612 5616 5621 5627 5634 5640 5646 5653 5660 5667 5670 5674 5678 5683 5689 5694 5698 5702 5706 5710 5715 5720 5724 5728 5732 5735 5738 5741 5747 5752 5755 5759 5762 5764 5766 5768 5771 5775 5781 5785 5787 5791 5791 5788 5791 5797 5799 5801 5808 5813 5817 5823 5826 5827 5828 5829 5830 5831 5832 5834 5835 5836 5838 5839 5841 5843
5577 5575 5574 5573 5569 5565 5563 5561 5560 5559 5558 5560 5562 5562 5566 5571 5575 5579 5583 5588 5594 5597 5599 5605 5610 5615 5621 5626 5633 5640 5648 5654 5659 5663 5668 5672 5678 5685 5690 5694 5697 5701 5706 5711 5715 5720 5724 5727 5729 5734 5739 5745 5750 5753 5755 5757 5760 5762 5766 5771 5776 5780 5783 5785 5783 5784 5790 5793 5793 5802 5809 5809 5812 5819 5823 5825 5826 5827 5828 5829 5830 5831 5832 5834 5836 5837 5838 5840
5573 5570 5569 5569 5566 5563 5561 5559 5557 5555 5554 5555 5556 5557 5559 5563 5566 5571 5575 5578 5582 5586 5589 5595 5599 5603 5609 5614 5620 5627 5634 5641 5647 5652 5657 5662 5669 5675 5680 5685 5689 5693 5697 5702 5706 5711 5715 5718 5722 5726 5731 5737 5743 5746 5748 5752 5755 5757 5761 5766 5771 5775 5778 5780 5780 5784 5788 5787 5791 5804 5807 5804 5808 5814 5818 5823 5825 5824 5826 5826 5826 5828 5830 5832 5833 5834 5835 5837
5570 5568 5567 5565 5563 5561 5560 5558 5556 5554 5553 5553 5553 5553 5555 5558 5560 5564 5569 5572 5574 5577 5581 5585 5589 5593 5598 5602 5608 5614 5620 5627 5634 5642 5648 5653 5659 5665 5670 5676 5681 5685 5689 5693 5697 5702 5707 5711 5714 5718 5724 5729 5735 5739 5743 5746 5748 5752 5757 5761 5765 5769 5773 5776 5778 5781 5783 5783 5790 5800 5799 5798 5804 5809 5813 5819 5821 5821 5822 5822 5823 5826 5827 5829 5830 5831 5833 5834
5567 5566 5565 5563 5561 5559 5558 5557 5555 5554 5552 5552 5551 5551 5553 5555 5556 5558 5562 5566 5569 5572 5575 5578 5580 5584 5588 5592 5596 5601 5607 5614 5623 5632 5639 5644 5650 5655 5660 5666 5672 5676 5681 5684 5688 5693 5699 5702 5706 5711 5716 5721 5726 5731 5735 5739 5742 5746 5752 5756 5761 5764 5767 5770 5773 5776 5777 5778 5785 5792 5791 5792 5801 5806 5809 5814 5817 5817 5819 5819 5820 5822 5823 5824 5826 5828 5830 5831
5565 5563 5563 5561 5559 5558 5556 5555 5554 5553 5552 5551 5550 5551 5551 5552 5553 5555 5557 5560 5563 5566 5569 5572 5574 5576 5580 5583 5585 5589 5596 5604 5612 5620 5627 5634 5640 5644 5649 5656 5661 5666 5672 5676 5679 5685 5690 5694 5699 5703 5706 5713 5719 5722 5727 5733 5737 5740 5748 5753 5755 5757 5761 5765 5768 5770 5772 5775 5781 5785 5784 5789 5800 5805 5807 5809 5812 5814 5815 5817 5818 5818 5818 5820 5822 5824 5827 5828
5563 5561 5561 5560 5558 5556 5555 5554 5553 5552 5551 5550 5549 5550 5550 5550 5551 5553 5553 5555 5558 5560 5561 5565 5568 5571 5574 5576 5576 5580 5586 5593 5601 5608 5615 5622 5629 5634 5640 5646 5651 5657 5664 5667 5671 5676 5681 5685 5691 5694 5697 5705 5711 5713 5720 5726 5730 5736 5744 5747 5749 5752 5756 5759 5762 5765 5768 5771 5775 5777 5781 5790 5800 5802 5801 5804 5806 5808 5811 5812 5813 5813 5814 5815 5817 5820 5823 5825